Location: Cabrera Baja
(40.4089°N, 4.3354°W)
Time: 02:24:47
(UTC+00:00)

Okean 1 - Pass Details

Date: 14 July 2020
Orbit: 538 x 556 km, 82.5° (Epoch: 03 August)

Event Time Altitude Azimuth Distance (km) Brightness Sun altitude
Rises 01:54:47 0° 345° (NNW) 2,703 7.6 -24.4°
Reaches altitude 10° 01:57:00 10° 339° (NNW) 1,808 6.5 -24.2°
Enters shadow 01:59:45 35° 308° (NW) 880 4.4 -24.0°
